CORVUS BC2

Last updated on Wed Oct 29 2025 00:03:53 GMT+0000 (Coordinated Universal Time)

1 42846U 17042X 25301.41022480 .00006518 00000+0 47279-3 0 9991 2 42846 97.3855 107.4353 0013762 180.5112 179.6103 15.04164848452192
UTC large
Height (km)
Speed (km/s)
/
Latitude / Longitude
Inclination (degrees)
Orbital Period (minutes)
Azimuth
Elevation
Range (km)
Doppler Factor

Next 0 passes for location: London (51.5072 / 0.1276)

Sorry there are no passes over London.